C/2019 K5 ( Young )

Japanese version
Home page
Updated on July 1, 2019

---------------------------------------------------------------------

* Profile

Discovery Date May 25, 2019
Magnitude 17.1 mag
Discoverer David Young (Asteroid Terrestrial-Impact Last Alert System (ATLAS) search program)

* Orbital Elements

Epoch 2019 June 6.0 TT = JDT 2458640.5                                          
T 2019 June 22.70604 TT                                 MPCLINUX                
q   2.0363680            (2000.0)            P               Q                  
z  +0.0044568      Peri.  174.89267     +0.99066989     +0.13567593             
 +/-0.001065       Node   177.21009     -0.13251440     +0.98100576             
e   0.9909243      Incl.   15.31198     -0.03182931     +0.13863529             
From 161 observations 2019 May 17-June 27, mean residual 0".6.                  

* Finding Charts

* Magnitudes Graph

        m1 = 11.5 + 5 log d + 10.0 log r

---------------------------------------------------------------------

The orbital elements are published on M.P.E.C. 2019-M86.
The charts are made with StellaNavigator Ver.10 (AstroArts).
The magnitudes graphs are made with Comet for Windows.

---------------------------------------------------------------------

Copyright(C) Seiichi Yoshida (comet@aerith.net). All rights reserved.